Keps
Threads by month
- ----- 2024 -----
- December
- November
- October
- September
- August
- July
- June
- May
- April
- March
- February
- January
- ----- 2023 -----
- December
- November
- October
- September
- August
- July
- June
- May
- April
- March
- February
- January
- ----- 2022 -----
- December
- November
- October
- September
- August
- July
- June
- May
- April
- March
- February
- January
- ----- 2021 -----
- December
- November
- October
- September
- August
- July
- June
- May
- April
- March
- February
- January
- ----- 2020 -----
- December
- November
- October
- September
- August
- July
- June
- May
- April
- March
- February
- January
- ----- 2019 -----
- December
- November
- October
- September
- August
- July
- June
- May
- April
- March
- February
- January
- ----- 2018 -----
- December
- November
- October
- September
- August
- July
- June
- May
- April
- March
- February
- January
- ----- 2017 -----
- December
- November
- October
- September
- August
- July
- June
- May
- April
- March
- February
- January
- ----- 2016 -----
- December
- November
- October
- September
- August
- July
- June
- May
- April
- March
- February
- January
- ----- 2015 -----
- December
- November
- October
- September
- August
- July
- June
- May
- April
- March
- February
- January
- ----- 2014 -----
- December
- November
- October
- September
- August
- July
- June
- May
- April
- March
- February
- January
- ----- 2013 -----
- December
- November
- October
- September
- August
- July
- June
- May
- April
- March
- February
- January
- ----- 2012 -----
- December
- November
- October
- September
- August
- July
- June
- May
- April
- March
- February
- January
- ----- 2011 -----
- December
- November
- October
- September
- August
- July
- June
- May
- April
- March
- February
- January
- ----- 2010 -----
- December
- November
- October
- September
- August
- July
- June
- May
- April
- March
- February
- January
- ----- 2009 -----
- December
- November
- October
- September
- August
- July
- June
- May
- April
- March
- February
- January
- ----- 2008 -----
- December
- November
- October
- September
- August
- July
- June
- May
- April
- March
- February
- January
- ----- 2007 -----
- December
- November
- October
- September
- August
- July
- June
- May
- April
- March
- February
- January
- ----- 2006 -----
- December
- November
- October
- September
April 2013
- 1 participants
- 10 discussions
A lot of activity in the last week!
The week we have added the following cubesat satellites:
OSSI-1 Cat# 39130 Beacon on 145.980 MHz CW and 437.525 MHz 1k2 also
has LED optical beacon in morse code
BEESAT2/3 Cat# 39131 435.950 MHz 4k8 GMSK (two separate satellites real
close together for now)
SOMP Cat# 39135 Downlink 437.485 MHz including CW, 1k2, 9k6 BPSK,
AX25 FSK and AO40 type standard 400bit/s BPSK
GRAHAM Cat# 39142 Phonesat 437.425 MHz using smartphone computer, using
batteries only only good for about a week
BELL Cat# 39143 Phonesat 437.425 MHz using smartphone computer, using
batteries only only good for about a week
ALEXANDER Cat# 39146 Phonesat 437.425 MHz using smartphone computer, using
batteries only only good for about a week
Go to http://ww2.amsat.org and click on "AMSAT NEWS SERVICE WEEKLY BULLETIN"
to get details on these new cubesats.
1
0
SB KEPS @ AMSAT $ORB13115.N
2Line Orbital Elements 13115.AMSAT
HR AMSAT ORBITAL ELEMENTS FOR AMATEUR SATELLITES IN NASA FORMAT
FROM WA5QGD FORT WORTH,TX April 25, 2013
BID: ORB13115.N
DECODE 2-LINE ELSETS WITH THE FOLLOWING KEY:
1 AAAAAU 00 0 0 BBBBB.BBBBBBBB .CCCCCCCC 00000-0 00000-0 0 DDDZ
2 AAAAA EEE.EEEE FFF.FFFF GGGGGGG HHH.HHHH III.IIII JJ.JJJJJJJJKKKKKZ
KEY: A-CATALOGNUM B-EPOCHTIME C-DECAY D-ELSETNUM E-INCLINATION F-RAAN
G-ECCENTRICITY H-ARGPERIGEE I-MNANOM J-MNMOTION K-ORBITNUM Z-CHECKSUM
TO ALL RADIO AMATEURS BT
AO-07
1 07530U 74089B 13115.03159480 -.00000041 00000-0 12923-4 0 6640
2 07530 101.4283 106.4735 0012171 034.4144 357.5106 12.53595826759121
FO-29
1 24278U 96046B 13114.76560875 .00000015 00000-0 54768-4 0 1006
2 24278 098.5596 180.4621 0349522 302.6431 207.0698 13.52998520824081
SO-33
1 25509U 98061B 13114.81033512 .00000787 00000-0 14600-3 0 4810
2 25509 031.4325 009.8274 0351235 050.6411 004.3846 14.29017452757253
RS-22
1 27939U 03042A 13115.57071483 .00000412 00000-0 86241-4 0 3542
2 27939 097.7993 306.1690 0013427 359.0939 001.0230 14.64399137511590
VO-52
1 28650U 05017B 13115.11356773 .00001184 00000-0 14823-3 0 4055
2 28650 097.5708 136.4380 0027663 096.4017 295.8952 14.83736386431215
HO-68
1 36122U 09072B 13115.68110952 -.00000044 00000-0 00000 0 0 4910
2 36122 100.3119 174.0504 0007868 113.9543 246.2386 13.16303422161506
UO-11
1 14781U 84021B 13115.20136812 .00000517 00000-0 73706-4 0 1611
2 14781 097.9072 177.2597 0010386 102.4096 257.8279 14.80832349566093
AO-16
1 20439U 90005D 13114.84143802 .00000142 00000-0 68685-4 0 7309
2 20439 098.4682 056.1164 0009961 321.1555 072.5948 14.32160502214609
LO-19
1 20442U 90005G 13115.79562175 .00000143 00000-0 68772-4 0 6640
2 20442 098.4368 059.0018 0010763 307.2083 085.7257 14.32372913214933
AO-27
1 22825U 93061C 13114.86606583 .00000105 00000-0 58049-4 0 3675
2 22825 098.6147 059.4658 0009586 087.1582 306.4879 14.29551427 21013
IO-26
1 22826U 93061D 13114.87627787 .00000128 00000-0 66614-4 0 1249
2 22826 098.6088 059.7737 0010077 081.1302 312.2091 14.29834328 21149
GO-32
1 25397U 98043D 13114.82831894 .00000053 00000-0 41723-4 0 544
2 25397 098.4098 084.9224 0002476 097.3738 292.7748 14.23333705768350
NO-44
1 26931U 01043C 13115.85519706 .00000104 00000-0 72538-4 0 3135
2 26931 067.0538 034.4117 0006871 286.0930 110.1934 14.29911069603945
SO-50
1 27607U 02058C 13115.16375065 .00000493 00000-0 96621-4 0 480
2 27607 064.5578 065.5481 0051746 180.1269 275.8485 14.72865011555906
CO-55
1 27844U 03031E 13114.57247380 .00000194 00000-0 10931-3 0 6323
2 27844 098.7018 124.4248 0010403 050.3341 095.8211 14.21194521509111
CO-57
1 27848U 03031J 13115.54837708 .00000149 00000-0 88754-4 0 5782
2 27848 098.7102 124.8712 0010372 053.3013 092.6363 14.20923290509185
AO-51
1 28375U 04025K 13114.84970295 .00000146 00000-0 56395-4 0 5405
2 28375 098.1969 072.4658 0083848 176.6311 204.1913 14.41097362463658
CP3
1 31129U 07012N 13115.66698362 .00000530 00000-0 12940-3 0 4456
2 31129 097.8958 111.2813 0099386 230.2256 190.4493 14.53580554319368
CO-65
1 32785U 08021C 13115.72547332 .00001052 00000-0 13319-3 0 6142
2 32785 097.7560 174.7469 0015936 118.7374 028.1173 14.83745831270098
PRISM
1 33493U 09002B 13115.89051458 .00001967 00000-0 23300-3 0 7457
2 33493 098.2105 271.1264 0018163 006.6356 353.5107 14.85675445230151
SOHLA-1
1 33496U 09002E 13115.81636146 .00000389 00000-0 72835-4 0 295
2 33496 098.1287 231.9915 0007903 125.2782 035.9699 14.70246922228176
SO-67
1 35870U 09049F 13115.81283943 .00003469 00000-0 13535-3 0 09
2 35870 097.1961 146.4381 0003320 117.1847 358.7250 15.26553097200265
TISAT-1
1 36799U 10035E 13115.76823448 .00001202 00000-0 15422-3 0 168
2 36799 098.0346 200.1521 0013451 235.7555 124.2382 14.83093030150800
STUDSAT
1 36801U 10035G 13115.19141752 .00006489 00000-0 71831-3 0 6197
2 36801 098.0460 202.2447 0011725 214.7597 178.0818 14.87645574150841
ALMASAT-1
1 38078U 12006B 13115.63173273 .00018016 00000-0 45256-3 0 2082
2 38078 069.4841 322.7341 0711121 214.2596 141.0828 14.21477367 61760
XATCOBEO
1 38082U 12006F 13115.55457501 .00066935 37087-5 13499-2 0 1004
2 38082 069.4835 303.5942 0613863 203.6728 153.5294 14.46702883 62289
SOMP
1 39135U 13015F 13115.67851839 .00002982 00000-0 25232-3 0 156
2 39135 064.8815 013.4192 0019282 213.6266 146.4117 14.99828808 958
NOAA-10
1 16969U 86073A 13115.41416535 .00000041 00000-0 34178-4 0 3272
2 16969 098.5493 144.3921 0012824 045.7362 018.2022 14.27629996384419
NOAA-11
1 19531U 88089A 13115.27173341 .00000052 00000-0 48978-4 0 3295
2 19531 098.7110 199.5497 0011921 057.6752 335.2904 14.15010689268644
NOAA-12
1 21263U 91032A 13115.48522913 -.00000001 00000-0 18242-4 0 7995
2 21263 098.7006 141.2797 0013795 018.3967 116.5997 14.25557866141043
MET-3/5
1 21655U 91056A 13115.83230247 .00000292 00000-0 72679-3 0 6747
2 21655 082.5540 291.2865 0012278 258.6509 101.3234 13.17042245 43047
MET-2/21
1 22782U 93055A 13115.64213853 .00000008 00000-0 -60202-5 0 7224
2 22782 082.5475 144.6144 0022065 000.3599 147.9565 13.83702772992376
OKEAN-4
1 23317U 94066A 13115.16881944 .00001008 00000-0 11671-3 0 2006
2 23317 082.5374 099.4124 0022110 045.6333 142.0926 14.84364008 1076
NOAA-14
1 23455U 94089A 13115.43628435 .00000074 00000-0 61983-4 0 2844
2 23455 098.8029 200.6721 0010384 144.2313 346.4614 14.13902055944914
NOAA-15
1 25338U 98030A 13115.57995230 .00000137 00000-0 77238-4 0 7048
2 25338 098.7221 106.0796 0009442 280.9744 218.1898 14.25203652777349
RESURS
1 25394U 98043A 13115.12682152 -.00000023 00000-0 79529-5 0 3598
2 25394 098.3575 093.5222 0002337 072.8125 066.4672 14.24327133768805
FENGYUN1
1 25730U 99025A 13115.48949503 .00001124 00000-0 65532-3 0 8581
2 25730 098.8755 075.6607 0023419 191.6685 317.7101 14.10400904718613
OKEAN-0
1 25860U 99039A 13115.47237705 .00000457 00000-0 76208-4 0 9282
2 25860 097.9854 078.6461 0001048 080.1110 067.8359 14.74549920740588
NOAA-16
1 26536U 00055A 13115.52218824 .00000064 00000-0 58918-4 0 1813
2 26536 099.0475 167.7532 0009458 283.6731 207.1565 14.12864260649138
NOAA-17
1 27453U 02032A 13115.61883875 .00000049 00000-0 38563-4 0 1034
2 27453 098.3143 132.4835 0010673 324.6984 182.6512 14.24582277563236
NOAA-18
1 28654U 05018A 13115.57583411 .00000073 00000-0 65341-4 0 5870
2 28654 099.0952 083.0502 0014152 001.3321 129.8587 14.11802689408633
NOAA-19
1 33591U 09005A 13115.58046478 .00000066 00000-0 60598-4 0 7721
2 33591 098.9005 058.0696 0013519 214.5887 263.3308 14.11490068217078
HUBBLE
1 20580U 90037B 13114.77321830 .00001722 00000-0 11104-3 0 2259
2 20580 028.4694 262.9569 0003232 134.3085 358.5015 15.03501685 61652
